Location: Poughquag
(41.6090°N, 73.6820°W)
Time: 05:03:59
(UTC-04:00)

ITUPSAT 1 - Pass Details

Date: 19 June 2024
Orbit: 695 x 705 km, 98.5° (Epoch: 24 July)

Event Time Altitude Azimuth Distance (km) Brightness Sun altitude
Rises 23:43:14 0° 5° (N) 3,106 ? -22.8°
Reaches altitude 10° 23:45:36 10° 358° (N) 2,184 ? -22.9°
Maximum altitude 23:50:03 40° 290° (WNW) 1,040 ? -23.2°
Enters shadow 23:52:15 25° 239° (WSW) 1,405 ? -23.3°
